CZ-8A R/B, 62980

Orbit data source: Space-Track

CZ-8A R/B, 62980 is space debris in LEO originally from a launch on Tue, 11 Feb 2025 UTC launched from the Wenchang Satellite Launch Center (WSC). Debris objects in space refer to the collection of defunct objects orbiting the Earth. Examples of debris include non-operational satellites, rocket bodies, and fragments generated from explosions, collisions, or faulty payload assembly.

Loading next visibility...
Identifier
62980, 2025-030K
Orbit
LEO
Country
Flag of CNCN / PRC
Related business
Manufacturer
CALT
Mission
Spacecraft
Bus & Motor
CZ-8A STAGE 2, Unknown motor
Mass
~2,800 kg wet, ~2,800 kg dry
Launch date (UTC)
2025-02-11 (9 months ago)
Launch vehicle
Unknown
Launch site
Wenchang Satellite Launch Center (WSC)
Object type
Payload
Rocket body
Debris
Shape & HBR
Cyl, 4.2 m
Radar Cross Section
36.967 m², Large (>1 m²)

Expand to show TLE details & history
Last TLE update: 1 day ago

TLE from 1 day ago
0 CZ-8A R/B
1 62980U 25030K   25312.57430429  .00000159  00000-0  11024-3 0  9998
2 62980  50.0045 159.3682 0118295 318.4105  40.7860 14.32843165 38736
Epoch: 2025-11-08T13:46Z
TLE epoch observation values (Epoch: 2025-11-08T13:46:59.890Z)
Latitude
Longitude
-95.3833°
Altitude
719.078 km
Speed
7.53 km/s
True Right ascension
10h 37m 28s
True Declination
0° 00' 00"
Sunlit
Object was in daylight at epoch
Visualization orbit readout
Latitude
Unknown
Longitude
Unknown
Altitude
Unknown
Speed
Unknown
Apparent Right ascension
Unknown
Apparent Declination
Unknown
Sunlit
N/A
Visualization observer readout
Local Sidereal Time
12:29:35
Azimuth
Unknown
Elevation
Unknown
Doppler factor
Unknown
Orbital elements
Apogee altitude
867.696 km
Perigee altitude
698.271 km
Semi-major axis
7,161.121 km
Eccentricity
0.01183
Inclination
50.0045°
RAAN
159.3682°
Arg. of periapsis
318.4105°
True anomaly
41.68149°
Mean anomaly
40.786°
Eccentric anomaly
41.23274°
Mean motion
3.58156 °/min
Orbital period
100.51 mins
BSTAR
0.00011024
Loading maneuver chart data...
Computing Atmospheric mass density...
Loading historical data...
Loading historical data...
Loading historical data...
Loading historical data...
Loading historical data...
Loading historical data...
Loading historical data...

Documentation

Showing up to 5 results
|